N92TH KTEX-KHND

Flight info

Callsign N92TH
Flight time 1h 5m
Altitude 43000
Route ETL EEEZY BOEGY2
Aircraft C750/M-SBDE3FGHRWXY/S

Departure

Time 2026-04-23 14:13
Airport Telluride Regional Airport (KTEX)

Arrival

Time 2026-04-23 15:18
Airport Henderson Executive Airport (KHND)
Time Latitude Longitude Altitude Speed Heading
2026-04-23 14:05 37.95414 -107.90202 9057 ft 0 kts 14°
2026-04-23 14:09 37.95416 -107.90202 9054 ft 0 kts 351°
2026-04-23 14:10 37.95412 -107.90212 9056 ft 6 kts 237°
2026-04-23 14:10 37.95368 -107.90177 9054 ft 10 kts 122°
2026-04-23 14:10 37.95340 -107.90106 9054 ft 8 kts 115°
2026-04-23 14:10 37.95321 -107.90041 9056 ft 11 kts 107°
2026-04-23 14:11 37.95293 -107.89913 9061 ft 15 kts 106°
2026-04-23 14:11 37.95272 -107.89817 9066 ft 8 kts 107°
2026-04-23 14:11 37.95252 -107.89720 9070 ft 11 kts 104°
2026-04-23 14:11 37.95223 -107.89673 9072 ft 4 kts 161°
2026-04-23 14:12 37.95157 -107.89689 9072 ft 11 kts 210°
2026-04-23 14:12 37.95150 -107.89775 9068 ft 11 kts 284°
2026-04-23 14:12 37.95224 -107.90128 9052 ft 91 kts 284°
2026-04-23 14:12 37.95458 -107.91233 9059 ft 153 kts 285°
2026-04-23 14:13 37.95770 -107.92526 9736 ft 157 kts 289°
2026-04-23 14:13 37.96145 -107.93853 10443 ft 161 kts 288°
2026-04-23 14:13 37.96492 -107.95203 11146 ft 160 kts 287°
2026-04-23 14:13 37.96825 -107.96542 11853 ft 158 kts 287°
2026-04-23 14:14 37.97165 -107.97916 12175 ft 173 kts 286°
2026-04-23 14:14 37.97552 -107.99486 12364 ft 200 kts 287°
2026-04-23 14:14 37.97839 -108.00648 12470 ft 217 kts 287°
2026-04-23 14:14 37.98481 -108.03253 12887 ft 239 kts 287°
2026-04-23 14:15 37.98970 -108.05237 13456 ft 244 kts 287°
2026-04-23 14:15 37.99502 -108.07395 13569 ft 271 kts 287°
2026-04-23 14:15 38.00090 -108.09789 13792 ft 297 kts 287°
2026-04-23 14:15 38.00731 -108.12401 13905 ft 323 kts 287°
2026-04-23 14:16 38.01192 -108.14286 13952 ft 340 kts 287°
2026-04-23 14:16 38.01907 -108.17197 14477 ft 345 kts 287°
2026-04-23 14:16 38.02620 -108.20091 15315 ft 343 kts 286°
2026-04-23 14:16 38.03283 -108.22970 15988 ft 345 kts 282°
2026-04-23 14:17 38.03459 -108.26000 16734 ft 345 kts 268°
2026-04-23 14:17 38.03491 -108.29037 17460 ft 342 kts 276°
2026-04-23 14:17 38.03228 -108.32026 18106 ft 344 kts 260°
2026-04-23 14:17 38.02800 -108.35028 18741 ft 346 kts 260°
2026-04-23 14:18 38.02106 -108.37956 19472 ft 346 kts 253°
2026-04-23 14:18 38.01401 -108.40869 20267 ft 345 kts 254°
2026-04-23 14:18 38.00638 -108.43754 21007 ft 346 kts 251°
2026-04-23 14:18 37.99741 -108.46554 21760 ft 347 kts 249°
2026-04-23 14:19 37.98835 -108.49384 22587 ft 346 kts 250°
2026-04-23 14:19 37.97985 -108.52275 23375 ft 345 kts 251°
2026-04-23 14:19 37.97164 -108.55090 24015 ft 346 kts 250°
2026-04-23 14:19 37.96300 -108.57937 24631 ft 346 kts 250°
2026-04-23 14:20 37.95426 -108.60788 25240 ft 348 kts 250°
2026-04-23 14:20 37.94561 -108.63652 25838 ft 349 kts 251°
2026-04-23 14:20 37.93697 -108.66530 26436 ft 350 kts 251°
2026-04-23 14:20 37.92823 -108.69417 27044 ft 352 kts 251°
2026-04-23 14:21 37.91942 -108.72315 27630 ft 353 kts 252°
2026-04-23 14:21 37.91060 -108.75223 28224 ft 355 kts 252°
2026-04-23 14:21 37.90173 -108.78149 28808 ft 357 kts 252°
2026-04-23 14:21 37.89278 -108.81087 29424 ft 358 kts 252°
2026-04-23 14:22 37.88382 -108.84034 29972 ft 359 kts 252°
2026-04-23 14:22 37.87477 -108.87006 30406 ft 363 kts 252°
2026-04-23 14:22 37.86565 -108.90001 30838 ft 366 kts 252°
2026-04-23 14:22 37.85646 -108.93004 31441 ft 364 kts 253°
2026-04-23 14:23 37.84746 -108.95941 32060 ft 362 kts 253°
2026-04-23 14:23 37.83840 -108.98906 32686 ft 360 kts 253°
2026-04-23 14:23 37.82937 -109.01857 33317 ft 359 kts 253°
2026-04-23 14:23 37.82034 -109.04798 33946 ft 357 kts 253°
2026-04-23 14:24 37.81133 -109.07733 34407 ft 358 kts 253°
2026-04-23 14:24 37.80227 -109.10689 34761 ft 362 kts 253°
2026-04-23 14:24 37.79311 -109.13666 35141 ft 365 kts 253°
2026-04-23 14:24 37.78386 -109.16666 35569 ft 367 kts 253°
2026-04-23 14:25 37.77456 -109.19684 35967 ft 370 kts 253°
2026-04-23 14:25 37.76519 -109.22725 36352 ft 373 kts 253°
2026-04-23 14:25 37.75583 -109.25751 36754 ft 376 kts 252°
2026-04-23 14:25 37.74627 -109.28838 37177 ft 378 kts 252°
2026-04-23 14:26 37.73667 -109.31940 37586 ft 381 kts 252°
2026-04-23 14:26 37.72702 -109.35053 37947 ft 380 kts 252°
2026-04-23 14:26 37.70724 -109.41438 38046 ft 401 kts 252°
2026-04-23 14:27 37.69690 -109.44760 38055 ft 412 kts 252°
2026-04-23 14:27 37.68628 -109.48164 38051 ft 420 kts 252°
2026-04-23 14:27 37.66473 -109.55051 38142 ft 405 kts 252°
2026-04-23 14:28 37.65458 -109.58291 38862 ft 387 kts 252°
2026-04-23 14:28 37.64483 -109.61418 39444 ft 382 kts 252°
2026-04-23 14:28 37.63507 -109.64554 39727 ft 385 kts 252°
2026-04-23 14:28 37.62519 -109.67707 40048 ft 388 kts 252°
2026-04-23 14:29 37.61532 -109.70836 40263 ft 390 kts 252°
2026-04-23 14:29 37.60532 -109.74017 40620 ft 391 kts 252°
2026-04-23 14:29 37.59528 -109.77219 40861 ft 394 kts 252°
2026-04-23 14:29 37.58519 -109.80437 41216 ft 395 kts 252°
2026-04-23 14:30 37.57498 -109.83645 41622 ft 394 kts 251°
2026-04-23 14:30 37.56479 -109.86859 41964 ft 395 kts 251°
2026-04-23 14:30 37.55465 -109.90087 42275 ft 397 kts 251°
2026-04-23 14:30 37.54441 -109.93336 42576 ft 399 kts 251°
2026-04-23 14:31 37.53406 -109.96596 42882 ft 401 kts 251°
2026-04-23 14:31 37.52358 -109.99894 42928 ft 409 kts 251°
2026-04-23 14:31 37.50202 -110.06691 42938 ft 426 kts 251°
2026-04-23 14:32 37.47956 -110.13735 42935 ft 441 kts 251°
2026-04-23 14:32 37.45669 -110.20890 42927 ft 445 kts 251°
2026-04-23 14:33 37.43345 -110.28157 42938 ft 444 kts 251°
2026-04-23 14:33 37.41036 -110.35349 42925 ft 444 kts 251°
2026-04-23 14:34 37.38715 -110.42566 42916 ft 444 kts 251°
2026-04-23 14:34 37.37577 -110.46089 42656 ft 431 kts 251°
2026-04-23 14:34 37.36439 -110.49622 42422 ft 438 kts 251°
2026-04-23 14:35 37.35293 -110.53177 42187 ft 439 kts 251°
2026-04-23 14:35 37.34140 -110.56733 41917 ft 440 kts 251°
2026-04-23 14:35 37.32985 -110.60297 41614 ft 439 kts 251°
2026-04-23 14:35 37.31834 -110.63845 41316 ft 436 kts 251°
2026-04-23 14:36 37.30692 -110.67365 41028 ft 434 kts 251°
2026-04-23 14:36 37.29551 -110.70874 40737 ft 433 kts 251°
2026-04-23 14:36 37.28428 -110.74321 40476 ft 432 kts 251°
2026-04-23 14:36 37.27290 -110.77815 40182 ft 430 kts 251°
2026-04-23 14:37 37.26161 -110.81278 39905 ft 427 kts 251°
2026-04-23 14:37 37.25038 -110.84714 39628 ft 424 kts 251°
2026-04-23 14:37 37.23921 -110.88130 39357 ft 422 kts 252°
2026-04-23 14:37 37.22813 -110.91514 39089 ft 418 kts 252°
2026-04-23 14:38 37.21707 -110.94894 38787 ft 417 kts 252°
2026-04-23 14:38 37.20609 -110.98236 38382 ft 412 kts 252°
2026-04-23 14:38 37.19517 -111.01559 37875 ft 413 kts 252°
2026-04-23 14:38 37.18420 -111.04900 37399 ft 414 kts 252°
2026-04-23 14:39 37.17320 -111.08240 36947 ft 414 kts 252°
2026-04-23 14:39 37.16221 -111.11570 36480 ft 413 kts 252°
2026-04-23 14:39 37.15124 -111.14896 35997 ft 413 kts 252°
2026-04-23 14:39 37.14021 -111.18234 35576 ft 416 kts 252°
2026-04-23 14:40 37.12917 -111.21578 35153 ft 414 kts 251°
2026-04-23 14:40 37.11823 -111.24871 34753 ft 413 kts 251°
2026-04-23 14:40 37.10720 -111.28184 34349 ft 413 kts 251°
2026-04-23 14:40 37.09619 -111.31505 33937 ft 412 kts 251°
2026-04-23 14:41 37.08518 -111.34832 33479 ft 416 kts 251°
2026-04-23 14:41 37.07406 -111.38178 32984 ft 417 kts 251°
2026-04-23 14:41 37.06280 -111.41554 32549 ft 422 kts 251°
2026-04-23 14:41 37.05148 -111.44946 32124 ft 422 kts 251°
2026-04-23 14:42 37.02884 -111.51732 32072 ft 423 kts 251°
2026-04-23 14:42 37.00587 -111.58588 31948 ft 428 kts 251°
2026-04-23 14:43 36.98280 -111.65460 31948 ft 428 kts 251°
2026-04-23 14:43 36.95964 -111.72352 31947 ft 430 kts 251°
2026-04-23 14:44 36.93638 -111.79247 31941 ft 430 kts 251°
2026-04-23 14:44 36.91318 -111.86115 31944 ft 432 kts 251°
2026-04-23 14:45 36.88973 -111.93034 31935 ft 432 kts 251°
2026-04-23 14:45 36.86626 -111.99951 31949 ft 432 kts 251°
2026-04-23 14:46 36.84273 -112.06864 31946 ft 432 kts 251°
2026-04-23 14:46 36.81916 -112.13776 31936 ft 432 kts 251°
2026-04-23 14:47 36.79565 -112.20654 31962 ft 433 kts 251°
2026-04-23 14:47 36.77194 -112.27570 31965 ft 433 kts 251°
2026-04-23 14:48 36.74820 -112.34485 31981 ft 433 kts 251°
2026-04-23 14:48 36.72270 -112.41323 31977 ft 435 kts 249°
2026-04-23 14:49 36.69667 -112.48137 31973 ft 435 kts 249°
2026-04-23 14:49 36.67045 -112.54984 31980 ft 439 kts 248°
2026-04-23 14:50 36.64404 -112.61853 31989 ft 441 kts 248°
2026-04-23 14:50 36.61764 -112.68721 32008 ft 440 kts 248°
2026-04-23 14:51 36.59124 -112.75556 32019 ft 440 kts 248°
2026-04-23 14:51 36.56469 -112.82432 32024 ft 441 kts 248°
2026-04-23 14:52 36.53799 -112.89316 32015 ft 442 kts 248°
2026-04-23 14:52 36.51131 -112.96194 32018 ft 442 kts 248°
2026-04-23 14:53 36.48457 -113.03065 32008 ft 442 kts 248°
2026-04-23 14:53 36.47119 -113.06494 31907 ft 431 kts 248°
2026-04-23 14:53 36.45853 -113.09720 31351 ft 401 kts 248°
2026-04-23 14:54 36.44662 -113.12772 30826 ft 390 kts 249°
2026-04-23 14:54 36.43492 -113.15798 30318 ft 393 kts 249°
2026-04-23 14:54 36.42303 -113.18835 29773 ft 390 kts 248°
2026-04-23 14:54 36.41119 -113.21842 29255 ft 387 kts 248°
2026-04-23 14:55 36.39942 -113.24844 28732 ft 385 kts 248°
2026-04-23 14:55 36.38777 -113.27826 28236 ft 383 kts 248°
2026-04-23 14:55 36.37619 -113.30790 27774 ft 381 kts 248°
2026-04-23 14:55 36.36455 -113.33746 27224 ft 380 kts 248°
2026-04-23 14:56 36.35319 -113.36683 26712 ft 377 kts 249°
2026-04-23 14:56 36.34232 -113.39627 26225 ft 374 kts 249°
2026-04-23 14:56 36.33143 -113.42554 25727 ft 373 kts 249°
2026-04-23 14:56 36.32032 -113.45464 25232 ft 372 kts 249°
2026-04-23 14:57 36.30927 -113.48351 24747 ft 370 kts 249°
2026-04-23 14:57 36.29838 -113.51233 24247 ft 368 kts 249°
2026-04-23 14:57 36.28756 -113.54102 23764 ft 367 kts 249°
2026-04-23 14:57 36.27672 -113.56954 23243 ft 365 kts 249°
2026-04-23 14:58 36.26590 -113.59794 22759 ft 365 kts 249°
2026-04-23 14:58 36.25510 -113.62633 22267 ft 364 kts 249°
2026-04-23 14:58 36.24431 -113.65471 21780 ft 363 kts 249°
2026-04-23 14:58 36.23354 -113.68294 21307 ft 362 kts 248°
2026-04-23 14:59 36.22277 -113.71115 20839 ft 362 kts 248°
2026-04-23 14:59 36.21202 -113.73934 20336 ft 361 kts 248°
2026-04-23 14:59 36.20131 -113.76736 19862 ft 360 kts 248°
2026-04-23 14:59 36.19064 -113.79532 19399 ft 359 kts 248°
2026-04-23 15:00 36.17993 -113.82324 18922 ft 359 kts 248°
2026-04-23 15:00 36.16921 -113.85115 18458 ft 359 kts 248°
2026-04-23 15:00 36.15860 -113.87883 17956 ft 347 kts 247°
2026-04-23 15:00 36.14859 -113.90485 17505 ft 323 kts 248°
2026-04-23 15:01 36.13924 -113.92919 17085 ft 304 kts 248°
2026-04-23 15:01 36.13031 -113.95247 16688 ft 297 kts 248°
2026-04-23 15:01 36.12445 -113.96776 16433 ft 295 kts 248°
2026-04-23 15:01 36.11280 -113.99810 15926 ft 295 kts 248°
2026-04-23 15:02 36.10681 -114.01362 15663 ft 295 kts 248°
2026-04-23 15:02 36.09510 -114.04397 15145 ft 296 kts 248°
2026-04-23 15:02 36.08595 -114.06680 14771 ft 297 kts 246°
2026-04-23 15:02 36.07953 -114.08196 14593 ft 293 kts 247°
2026-04-23 15:03 36.07077 -114.10423 14316 ft 291 kts 249°
2026-04-23 15:03 36.06189 -114.12679 14030 ft 292 kts 248°
2026-04-23 15:03 36.05270 -114.14916 13739 ft 292 kts 248°
2026-04-23 15:03 36.04354 -114.17138 13430 ft 291 kts 247°
2026-04-23 15:04 36.03440 -114.19380 13129 ft 292 kts 247°
2026-04-23 15:04 36.02530 -114.21616 12838 ft 291 kts 247°
2026-04-23 15:04 36.01622 -114.23839 12551 ft 290 kts 247°
2026-04-23 15:04 36.00712 -114.26067 12264 ft 290 kts 247°
2026-04-23 15:05 35.99802 -114.28292 11986 ft 290 kts 247°
2026-04-23 15:05 35.98892 -114.30513 11699 ft 290 kts 246°
2026-04-23 15:05 35.97984 -114.32731 11417 ft 290 kts 246°
2026-04-23 15:05 35.97074 -114.34952 11129 ft 289 kts 246°
2026-04-23 15:06 35.96178 -114.37136 10864 ft 288 kts 246°
2026-04-23 15:06 35.95273 -114.39340 10565 ft 289 kts 246°
2026-04-23 15:06 35.94368 -114.41547 10216 ft 288 kts 246°
2026-04-23 15:06 35.93460 -114.43756 9922 ft 287 kts 245°
2026-04-23 15:07 35.92557 -114.45953 9626 ft 287 kts 245°
2026-04-23 15:07 35.91657 -114.48137 9346 ft 286 kts 245°
2026-04-23 15:07 35.90752 -114.50336 9072 ft 287 kts 245°
2026-04-23 15:07 35.89849 -114.52530 8798 ft 287 kts 245°
2026-04-23 15:08 35.88945 -114.54722 8523 ft 286 kts 245°
2026-04-23 15:08 35.88041 -114.56913 8253 ft 286 kts 245°
2026-04-23 15:08 35.87136 -114.59104 7977 ft 286 kts 245°
2026-04-23 15:09 35.85326 -114.63483 7349 ft 286 kts 245°
2026-04-23 15:09 35.84433 -114.65644 7109 ft 286 kts 245°
2026-04-23 15:09 35.83562 -114.67850 6834 ft 283 kts 251°
2026-04-23 15:09 35.82998 -114.70157 6860 ft 282 kts 257°
2026-04-23 15:10 35.82437 -114.72482 6854 ft 283 kts 256°
2026-04-23 15:10 35.81862 -114.74802 6865 ft 284 kts 256°
2026-04-23 15:10 35.81290 -114.77137 6925 ft 283 kts 256°
2026-04-23 15:10 35.80727 -114.79465 6927 ft 284 kts 256°
2026-04-23 15:11 35.80160 -114.81792 6925 ft 285 kts 256°
2026-04-23 15:11 35.79588 -114.84126 6927 ft 284 kts 256°
2026-04-23 15:11 35.79018 -114.86456 6931 ft 283 kts 256°
2026-04-23 15:11 35.78450 -114.88785 6924 ft 284 kts 256°
2026-04-23 15:12 35.77908 -114.90982 6768 ft 256 kts 256°
2026-04-23 15:12 35.77413 -114.92997 6569 ft 241 kts 256°
2026-04-23 15:12 35.76934 -114.94969 6371 ft 240 kts 256°
2026-04-23 15:12 35.76452 -114.96937 6166 ft 240 kts 256°
2026-04-23 15:13 35.75973 -114.98897 5970 ft 238 kts 257°
2026-04-23 15:13 35.75832 -115.00882 5914 ft 232 kts 276°
2026-04-23 15:13 35.75936 -115.02856 5950 ft 231 kts 277°
2026-04-23 15:13 35.76027 -115.04832 5959 ft 232 kts 276°
2026-04-23 15:14 35.76221 -115.06783 5906 ft 228 kts 292°
2026-04-23 15:14 35.77234 -115.08166 5883 ft 219 kts 334°
2026-04-23 15:14 35.78662 -115.08708 5965 ft 220 kts 348°
2026-04-23 15:14 35.80146 -115.09128 5964 ft 218 kts 348°
2026-04-23 15:15 35.81638 -115.09553 5941 ft 217 kts 347°
2026-04-23 15:15 35.83120 -115.09972 5952 ft 220 kts 348°
2026-04-23 15:15 35.84578 -115.10506 5947 ft 217 kts 341°
2026-04-23 15:15 35.85986 -115.11188 5885 ft 203 kts 340°
2026-04-23 15:16 35.87191 -115.11794 5490 ft 176 kts 340°
2026-04-23 15:16 35.88331 -115.12324 5090 ft 174 kts 340°
2026-04-23 15:16 35.89447 -115.12856 4827 ft 174 kts 341°
2026-04-23 15:16 35.90604 -115.13281 4231 ft 176 kts 349°
2026-04-23 15:17 35.91715 -115.13486 3944 ft 147 kts 352°
2026-04-23 15:17 35.92681 -115.13592 3625 ft 132 kts 357°
2026-04-23 15:17 35.93578 -115.13602 3345 ft 127 kts 360°
2026-04-23 15:17 35.94455 -115.13575 3071 ft 129 kts 359°
2026-04-23 15:18 35.95371 -115.13568 2785 ft 130 kts 360°
2026-04-23 15:18 35.96271 -115.13555 2534 ft 131 kts 359°
2026-04-23 15:18 35.97114 -115.13545 2454 ft 98 kts
2026-04-23 15:18 35.97583 -115.13540 2440 ft 41 kts
2026-04-23 15:19 35.97744 -115.13564 2432 ft 11 kts 283°
2026-04-23 15:19 35.97761 -115.13634 2430 ft 7 kts 339°
2026-04-23 15:19 35.97816 -115.13637 2428 ft 9 kts 360°